Regional Weather Roundup
Issued by NWS Kansas City/Pleasant Hill, MO

Home | Current Version | Previous Version | Graphics & Text | Print | Product List | Glossary Off
Versions: 1 2 3 4 5 6 7 8 9 10 11 12 13 14 15 16 17 18 19 20 21 22 23 24 25 26 27 28 29 30 31 32 33 34 35 36 37 38 39 40 41 42 43 44 45 46 47 48 49 50

000
ASUS43 KEAX 271411
RWREAX

WEATHER ROUNDUP FOR EASTERN KANSAS AND NORTHWEST MISSOURI
NATIONAL WEATHER SERVICE KANSAS CITY/PLEASANT HILL MO
900 AM CDT WED MAY 27 2015

KSZ040-057-103>105-MOZ028-029-037-043-271500-
...KANSAS CITY METROPOLITAN AREA...

CITY           SKY/WX    TMP DP  RH WIND       PRES   REMARKS
K.C. INTL      MOSUNNY   68  57  68 NW5       30.08R
K.C. DOWNTOWN  SUNNY     70  56  61 CALM      30.07R
LEES SUMMIT    SUNNY     70  57  63 VRB3      30.09R
OLATHE - IXD   SUNNY     69  56  62 CALM      30.09R
OLATHE - OJC   SUNNY     71  55  56 N6        30.08R
LAWRENCE       SUNNY     66  59  78 NW5       30.08S

$$

MOZ001>008-011>017-020>025-030>033-038>040-044>046-053-054-271500-
...NORTHERN AND CENTRAL MISSOURI...

CITY           SKY/WX    TMP DP  RH WIND       PRES   REMARKS
ST. JOSEPH     SUNNY     67  57  70 CALM      30.07R
MOSBY          SUNNY     68  55  64 CALM      30.07S
WARRENSBURG    SUNNY     70  57  64 CALM      30.08R
WHITEMAN AFB   SUNNY     70  58  66 W5        30.08R
CLINTON        SUNNY     72  61  68 CALM      30.10R
SEDALIA        SUNNY     72  61  68 VRB3      30.09R
WARSAW         NOT AVBL
CHILLICOTHE      N/A     68  58  70 VRB3      30.07R
KIRKSVILLE     SUNNY     67  59  75 W6        30.06R

$$

MOZ041-047>049-056>058-063>065-088>090-097-271500-
...EASTERN AND SOUTHERN MISSOURI...

CITY           SKY/WX    TMP DP  RH WIND       PRES   REMARKS
ST. LOUIS INTL CLOUDY    70  60  70 SW13      30.06F
SPIRIT OF STL  CLOUDY    69  62  78 S6        30.05F
COLUMBIA       PTSUNNY   71  63  75 W7        30.07S
JEFFERSON CITY PTSUNNY   70  62  76 NW7       30.06R
ROLLA          CLOUDY    65  63  93 S9        30.08R
SPRINGFIELD    LGT RAIN  68  65  90 NW6       30.10S
JOPLIN         MOSUNNY   71  67  87 VRB6      30.09F
WEST PLAINS    CLOUDY    66  61  84 S5        30.14R

$$

IAZ060-094-KSZ022-034>040-054-083-096-NEZ052-066-093-271500-
...KANSAS...SOUTHEAST NEBRASKA AND IOWA...

CITY           SKY/WX    TMP DP  RH WIND       PRES   REMARKS
TOPEKA         SUNNY     68  58  70 CALM      30.08S
MANHATTAN      SUNNY     64  59  83 S3        30.08S
EMPORIA        SUNNY     69  58  67 NE5       30.08R
CHANUTE        SUNNY     71  61  70 E5        30.08R
WICHITA        PTSUNNY   68  59  73 E9        30.07R
OMAHA          SUNNY     65  55  70 NW5       30.05R
LINCOLN        SUNNY     66  54  65 W3        30.07R
FALLS CITY     SUNNY     67  55  65 NW5       30.06R
LAMONI         SUNNY     68  58  70 W7        30.05R
DES MOINES     MOSUNNY   66  57  72 NW8       30.02R

$$




USA.gov is the U.S. government's official web portal to all federal, state and local government web resources and services.